Location: Carri�res
(48.9069°N, 2.1792°E)
Time: 13:48:59
(UTC+00:00)

Cosmos 1503 Rocket - Pass Details

Date: 17 January 2021
Orbit: 752 x 791 km, 74.0° (Epoch: 25 February)

Event Time Altitude Azimuth Distance (km) Brightness Sun altitude
Rises 18:01:04 0° 208° (SSW) 3,264 7.9 -15.3°
Reaches altitude 10° 18:03:27 10° 210° (SSW) 2,343 7.1 -15.7°
Maximum altitude 18:08:47 71° 295° (WNW) 836 4.3 -16.5°
Drops below altitude 10° 18:14:10 10° 20° (NNE) 2,367 6.2 -17.4°
Enters shadow 18:14:30 - 20° (NNE) 2,495 6.3 -17.4°
